Flag for Germany Weather past 2 weeks in Wittlich, Rhineland-Palatinate, Germany

34 °F


Feels Like: 34 °F
Forecast: 29 / 41 °F
Wind: No wind

Location: Spangdahlem

Current Time: Nov 25, 2015 at 9:21:55 AM

Latest Report: Nov 25, 2015 at 8:58 AM

Visibility: 1 mi

Pressure: 29.76 "Hg

Humidity: 100%

Dew point: 34 °F

Location of WittlichLocation

Historic Weather in Wittlich — Graph


Wittlich temperature yesterday

Maximum temperature yesterday: 33 °F (at 3:58 PM)
Minimum temperature yesterday: 28 °F (at 5:58 AM)
Average temperature yesterday: 31 °F

Past Weeks' High & Low Weather Summary

High57 °F (Nov 12, 2:02 PM)100% (Nov 10, 4:00 PM)30.37 "Hg (Nov 10, 4:00 PM)
Low28 °F (Nov 24, 5:58 AM)69% (Nov 18, 2:58 PM)29.40 "Hg (Nov 21, 12:02 PM)
Average45 °F91%30.02 "Hg
* Reported Nov 10 6:58 AM — Nov 25 6:58 AM, Wittlich, Weather by CustomWeather, © 2015

Note: Actual official high and low records may vary slightly from our data, if they occured in-between our weather recording intervals... More about our weather records


Wittlich weather history for previous 24 hours

Time TempWeatherWind HumidityBarometerVisibility
6:58 AM
Wed, Nov 25
33 °FFog.No wind98%29.76 "Hg1 mi
5:58 AM32 °FLight freezing rain. Ice fog.No wind100%29.76 "Hg1 mi
4:59 AM32 °FLight freezing rain. Ice fog.No wind100%29.74 "Hg1 mi
3:58 AM32 °FLight freezing rain. Ice fog.5 mph100%29.75 "Hg6 mi
2:58 AM32 °FLight snow. Low clouds.9 mph98%29.79 "HgN/A
1:58 AM32 °FFreezing rain. Fog.9 mph97%29.80 "Hg5 mi
12:58 AM32 °FLight snow. Low clouds.8 mph97%29.82 "HgN/A
11:58 PM
Tue, Nov 24
32 °FLight freezing rain. Low clouds.12 mph100%29.84 "HgN/A
10:58 PM32 °FLight snow. Low clouds.10 mph93%29.86 "HgN/A
10:04 PM32 °FLight snow. Ice fog.14 mph100%29.85 "Hg6 mi
9:59 PM32 °FLight snow. Ice fog.13 mph93%29.88 "Hg1 mi
8:59 PM32 °FLight snow. Ice fog.9 mph96%29.91 "Hg1 mi
7:58 PM32 °FLight snow. Ice fog.13 mph97%29.93 "Hg1 mi
7:04 PM32 °FLight snow. Ice fog.15 mph100%29.92 "Hg1 mi
6:59 PM32 °FLight snow. Ice fog.15 mph96%29.96 "Hg1 mi
6:01 PM32 °FLight snow. Ice fog.9 mph100%29.93 "Hg3 mi
4:58 PM33 °FLight snow. Overcast.15 mph91%29.99 "Hg3 mi
3:58 PM33 °FLight snow. Overcast.14 mph88%30.03 "Hg6 mi
3:45 PM32 °FOvercast.15 mph93%30.00 "HgN/A
2:58 PM32 °FOvercast.14 mph89%30.06 "HgN/A
1:58 PM32 °FLow clouds.13 mph91%30.09 "HgN/A
12:58 PM31 °FIce fog.15 mph94%30.11 "Hg6 mi
11:58 AM30 °FIce fog.13 mph97%30.15 "Hg5 mi
10:58 AM29 °FIce fog.10 mph96%30.18 "Hg4 mi
9:58 AM29 °FIce fog.10 mph98%30.20 "Hg1 mi
Weather by CustomWeather, © 2015

See weather overviewHow to use our weather pages